Location: Brest
(52.1000°N, 23.7000°E)
Time: 23:42:17
(UTC+03:00)

Envisat - Visible Passes

Search period start: 22 August 2017 00:00
Search period end: 01 September 2017 00:00
Orbit: 764 x 766 km, 98.2° (Epoch: 22 August)

Date Brightness Start Highest point End Pass type
(mag) Time Alt. Az. Time Alt. Az. Time Alt. Az.
22 Aug 4.1 21:40:37 10° S 21:45:29 45° W 21:50:23 10° NNW visible
23 Aug 3.1 21:03:34 10° SSE 21:08:40 87° WSW 21:13:48 10° NNW visible
23 Aug 5.6 22:45:37 10° WSW 22:48:27 15° W 22:51:19 10° NW visible
24 Aug 4.9 22:06:56 10° SSW 22:11:18 28° W 22:15:41 10° NNW visible
25 Aug 3.7 21:29:22 10° S 21:34:20 55° W 21:39:21 10° NNW visible
26 Aug 5.5 22:33:45 10° SW 22:37:13 18° W 22:40:40 10° NW visible
27 Aug 4.6 21:55:30 10° SSW 22:00:06 34° W 22:04:45 10° NNW visible
28 Aug 3.4 21:18:09 10° S 21:23:12 67° WSW 21:28:18 10° NNW visible
28 Aug 5.8 23:01:52 10° W 23:03:14 11° W 23:04:36 10° WNW visible
29 Aug 5.2 22:22:04 10° SW 22:25:58 22° W 22:29:54 10° NW visible
30 Aug 4.2 21:44:09 10° SSW 21:48:56 42° W 21:53:46 10° NNW visible
31 Aug 3.1 21:07:00 10° SSE 21:12:06 81° WSW 21:17:13 10° NNW visible
31 Aug 5.7 22:49:25 10° WSW 22:51:57 14° W 22:54:29 10° NW visible
